BEIDOU 5 (C06)

Last updated on Jan. 22, 2021, 6:27 a.m. UTC

1 36828U 10036A   21021.89349164 -.00000040  00000-0  00000-0 0  9992
2 36828  54.1712 180.9457 0101483 233.2083 144.9031  1.00247469 38445
UTC
Height (km)
Latitude
Longitude
Inclination
Orbital Period
UTC large
Height (km)
Speed (km/s)
/
Latitude / Longitude
Inclination (degrees)
Orbital Period (minutes)
Azimuth
Elevation
Range (km)
Doppler Factor
iOS Compass Heading
iOS Angle

Next 30 passes for location: Hong Kong

Rise time Rise Azimuth (degrees) Set time Set Azimuth (degrees) Duration Max altitude (degrees)

No matching passes for this satellites